This demonstration page uses our WeatherBlox Daily Observations layout. Learn more.

Hourly Observations for October 1, 2020

Temp ( °F °C ) Dew Point ( °F °C ) Humidity (%) Winds ( mph kmh ) Pressure ( in mb ) Visibility ( mi km ) Precip ( " mm )
12:54 am 00:54 Clear 45 7.2 29 -1.7 54 54 N 5 7 30.18 1022 10 16.0934 0 0
1:54 am 01:54 Clear 45 7.2 28 -2.2 52 52 Calm 30.18 1022 10 16.0934 0 0
2:54 am 02:54 Clear 48 8.9 29 -1.7 48 48 WNW 5 7 30.18 1022 10 16.0934 0 0
3:54 am 03:54 Clear 47 8.3 29 -1.7 50 50 NNW 8 13 30.2 1023 10 16.0934 0 0
4:54 am 04:54 Clear 49 9.4 28 -2.2 44 44 NW 14 22 30.22 1023 10 16.0934 0 0
5:54 am 05:54 Clear 46 7.8 29 -1.7 51 51 WNW 10 17 30.24 1024 10 16.0934 0 0
6:54 am 06:54 Clear 46 7.8 30 -1.1 54 54 NW 13 20 30.28 1025 10 16.0934 0 0
7:54 am 07:54 Sunny 46 7.8 31 -0.6 56 56 NNW 12 19 30.31 1026 10 16.0934 0 0
8:54 am 08:54 Sunny 50 10 32 0 50 50 NNW 16 26 30.33 1027 10 16.0934 0 0
9:54 am 09:54 Sunny 53 11.7 34 1.1 48 48 N 23 37 30.35 1028 10 16.0934 0 0
10:54 am 10:54 Sunny 56 13.3 34 1.1 44 44 NNW 22 35 30.36 1028 10 16.0934 0 0
11:54 am 11:54 Sunny 59 15 33 0.6 38 38 NNW 20 31 30.35 1028 10 16.0934 0 0
12:54 pm 12:54 Partly Cloudy 61 16.1 34 1.1 36 36 NNW 21 33 30.35 1028 10 16.0934 0 0
1:54 pm 13:54 Mostly Cloudy 62 16.7 33 0.6 34 34 NW 20 31 30.34 1027 10 16.0934 0 0
2:54 pm 14:54 Mostly Cloudy 63 17.2 33 0.6 33 33 WNW 18 30 30.31 1026 10 16.0934 0 0
3:54 pm 15:54 Mostly Cloudy 62 16.7 32 0 32 32 NNW 21 33 30.3 1026 10 16.0934 0 0
4:54 pm 16:54 Mostly Cloudy 60 15.6 31 -0.6 33 33 NNW 15 24 30.29 1026 10 16.0934 0 0
5:54 pm 17:54 Mostly Cloudy 60 15.6 31 -0.6 33 33 N 16 26 30.29 1026 10 16.0934 0 0
6:10 pm 18:10 Mostly Cloudy 59 15 32 0 36 36 N 15 24 30.28 1025 10 16.0934 0 0
6:54 pm 18:54 Partly Cloudy 55 12.8 32 0 42 42 NNE 10 17 30.31 1026 10 16.0934 0 0
7:54 pm 19:54 Clear 46 7.8 32 0 58 58 NNE 6 9 30.33 1027 10 16.0934 0 0
8:54 pm 20:54 Clear 44 6.7 32 0 63 63 N 3 6 30.33 1027 10 16.0934 0 0
9:54 pm 21:54 Clear 46 7.8 33 0.6 61 61 Calm 30.33 1027 10 16.0934 0 0
10:54 pm 22:54 Clear 38 3.3 31 -0.6 76 76 Calm 30.34 1027 10 16.0934 0 0
11:54 pm 23:54 Clear 37 2.8 31 -0.6 79 79 Calm 30.33 1027 10 16.0934 0 0

Powered by AerisWeather